period_start,C,m1,H,J0,J1,J2,J3,J4,J5,JA,JB,JC,JD,JJ,JK,JN,#
2015-09-02 00:00:26,0.00,0.33,0.00,23.35,28.05,30.75,14.68,49.75,1019.57,2035.18,3300.06,3160.00,3442.97,600.24,597.39,30.57,0000 0000 0000 0000 000000
2015-09-02 00:05:28,0.03,0.33,0.00,23.35,28.05,30.75,14.63,49.73,1019.59,2035.42,3300.08,3160.00,3442.99,599.90,597.09,30.62,0000 0000 0000 0000 000000
2015-09-02 00:10:29,-0.00,0.34,0.00,23.40,28.05,30.76,14.58,49.68,1019.61,2035.42,3300.02,3160.00,3442.98,599.99,596.99,30.67,0000 0000 0000 0000 000000
2015-09-02 00:15:30,0.03,0.34,0.00,23.27,28.05,30.75,14.65,49.72,1019.65,2035.65,3300.02,3160.00,3442.99,599.98,597.23,30.72,0000 0000 0000 0000 000000
2015-09-02 00:20:32,0.00,0.34,0.00,23.34,28.05,30.73,14.53,49.55,1019.75,2035.67,3299.99,3160.00,3442.99,599.77,596.96,30.77,0000 0000 0000 0000 000000
2015-09-02 00:25:33,-0.00,0.34,0.00,23.35,28.05,30.75,14.58,49.70,1019.71,2035.80,3299.99,3159.99,3442.98,599.87,597.06,30.82,0000 0000 0000 0000 000000
2015-09-02 00:30:34,0.01,0.34,0.00,23.40,28.05,30.74,14.54,49.64,1019.77,2035.87,3299.99,3159.99,3442.97,599.67,596.79,30.87,0000 0000 0000 0000 000000
2015-09-02 00:35:36,-0.01,0.34,0.00,23.29,28.05,30.77,14.56,49.58,1019.68,2035.86,3299.99,3159.99,3442.98,600.04,597.23,30.92,0000 0000 0000 0000 000000
2015-09-02 00:40:37,0.01,0.34,0.00,23.25,28.05,30.71,14.57,49.63,1019.64,2035.94,3299.99,3159.99,3442.98,599.97,597.28,30.97,0000 0000 0000 0000 000000
2015-09-02 00:45:38,0.00,0.34,0.00,23.32,28.04,30.73,14.54,49.54,1019.60,2035.96,3299.99,3159.99,3442.99,599.81,596.94,31.02,0000 0000 0000 0000 000000
2015-09-02 00:50:39,-0.00,0.34,0.00,23.20,28.03,30.74,14.56,49.63,1019.61,2035.97,3299.98,3159.99,3442.98,599.99,597.42,31.07,0000 0000 0000 0000 000000
2015-09-02 00:55:41,0.00,0.34,0.00,23.27,28.03,30.72,14.56,49.62,1019.64,2035.98,3299.99,3159.99,3442.98,599.69,596.94,31.12,0000 0000 0000 0000 000000
2015-09-02 01:00:42,0.00,0.34,0.00,23.26,28.03,30.75,14.52,49.73,1019.63,2035.97,3299.99,3159.99,3442.97,599.60,596.91,31.17,0000 0000 0000 0000 000000
2015-09-02 01:05:43,0.00,0.34,0.00,23.04,28.02,30.80,14.62,49.84,1019.69,2035.97,3299.99,3159.99,3442.95,600.03,597.81,31.22,0000 0000 0000 0000 000000
2015-09-02 01:10:45,-0.00,0.34,0.00,23.09,28.02,30.72,14.58,49.79,1019.76,2035.96,3299.98,3159.98,3442.95,600.30,597.89,31.27,0000 0000 0000 0000 000000
2015-09-02 01:15:46,0.00,0.34,0.00,23.21,28.02,30.75,14.64,49.82,1019.62,2035.98,3299.90,3159.99,3442.91,600.00,597.31,31.32,0000 0000 0000 0000 000000
2015-09-02 01:20:47,0.00,0.34,0.00,23.18,28.02,30.77,14.54,49.71,1019.57,2035.97,3299.89,3159.98,3442.87,599.78,597.24,31.37,0000 0000 0000 0000 000000
2015-09-02 01:25:49,0.00,0.34,0.00,23.22,28.02,30.73,14.61,49.83,1019.57,2035.98,3299.97,3159.99,3442.94,599.92,597.22,31.42,0000 0000 0000 0000 000000
2015-09-02 01:30:50,0.01,0.34,0.00,23.29,28.04,30.75,14.58,49.81,1019.56,2035.98,3299.71,3159.97,3442.78,599.83,597.09,31.47,0000 0000 0000 0000 000000
2015-09-02 01:35:52,0.00,0.34,0.00,23.16,28.04,30.76,14.48,49.63,1019.57,2035.98,3299.51,3159.96,3442.66,599.57,597.14,31.52,0000 0000 0000 0000 000000
2015-09-02 01:40:53,0.00,0.34,0.00,23.17,28.05,30.71,14.59,49.69,1019.56,2035.97,3299.56,3159.97,3442.76,599.76,597.10,31.57,0000 0000 0000 0000 000000
2015-09-02 01:45:55,-0.00,0.34,0.00,23.23,28.05,30.74,14.61,49.75,1019.56,2035.98,3299.80,3159.98,3442.76,600.05,597.20,31.62,0000 0000 0000 0000 000000
2015-09-02 01:50:56,0.00,0.34,0.00,23.10,28.05,30.80,14.64,50.03,1019.56,2035.98,3299.81,3159.98,3442.75,600.43,597.98,31.67,0000 0000 0000 0000 000000
2015-09-02 01:55:57,0.01,0.34,0.00,23.07,28.05,30.74,14.62,49.87,1019.57,2035.99,3299.62,3159.96,3442.76,600.05,597.72,31.72,0000 0000 0000 0000 000000
2015-09-02 02:00:58,0.01,0.34,0.00,23.20,28.05,30.75,14.57,49.80,1019.56,2035.99,3299.45,3159.98,3442.63,600.18,597.52,31.77,0000 0000 0000 0000 000000
2015-09-02 02:05:59,0.01,0.34,0.00,23.17,28.05,30.79,14.60,49.63,1019.57,2035.99,3299.21,3159.90,3442.42,600.16,597.57,31.82,0000 0000 0000 0000 000000
2015-09-02 02:11:00,0.01,0.34,0.00,23.17,28.05,30.72,14.59,49.75,1019.71,2035.98,3299.07,3159.80,3442.09,599.78,597.28,31.87,0000 0000 0000 0000 000000
2015-09-02 02:16:02,-0.00,0.34,0.00,23.28,28.06,30.75,14.65,49.76,1019.67,2035.97,3299.13,3159.77,3442.05,599.81,597.07,31.92,0000 0000 0000 0000 000000
2015-09-02 02:21:03,0.00,0.34,0.00,23.25,28.07,30.77,14.59,49.66,1019.58,2035.92,3299.02,3159.43,3442.02,599.82,597.16,31.97,0000 0000 0000 0000 000000
2015-09-02 02:26:04,0.00,0.34,0.00,23.30,28.07,30.76,14.54,49.73,1019.55,2035.93,3299.04,3159.27,3442.01,599.86,596.98,32.02,0000 0000 0000 0000 000000
2015-09-02 02:31:05,-0.01,0.34,0.00,23.28,28.08,30.77,14.60,49.83,1019.55,2035.82,3299.03,3159.16,3442.00,600.18,597.50,32.07,0000 0000 0000 0000 000000
2015-09-02 02:36:06,0.01,0.34,0.00,23.31,28.10,30.76,14.62,49.89,1019.55,2035.77,3299.02,3159.08,3442.00,599.77,596.89,32.12,0000 0000 0000 0000 000000
2015-09-02 02:41:08,-0.01,0.34,0.00,23.37,28.10,30.76,14.54,49.77,1019.55,2035.70,3299.00,3159.05,3442.00,600.22,597.23,32.17,0000 0000 0000 0000 000000
2015-09-02 02:46:09,-0.02,0.34,0.00,23.42,28.10,30.76,14.62,49.98,1019.58,2035.44,3299.00,3159.00,3441.97,600.08,596.95,32.22,0000 0000 0000 0000 000000
2015-09-02 02:51:10,0.00,0.34,0.00,23.41,28.12,30.80,14.55,49.80,1019.57,2035.37,3298.98,3159.00,3441.94,600.05,596.99,32.27,0000 0000 0000 0000 000000
2015-09-02 02:56:11,-0.01,0.34,0.00,23.41,28.12,30.77,14.65,49.81,1019.57,2035.27,3298.93,3159.00,3441.70,600.13,596.93,32.32,0000 0000 0000 0000 000000
2015-09-02 03:01:12,-0.01,0.34,0.00,23.45,28.12,30.79,14.58,49.79,1019.58,2035.11,3298.92,3159.00,3441.22,600.23,597.22,32.37,0000 0000 0000 0000 000000
2015-09-02 03:06:14,0.01,0.34,0.00,23.42,28.13,30.77,14.56,49.76,1019.72,2035.04,3298.60,3158.99,3441.22,600.00,597.07,32.42,0000 0000 0000 0000 000000
2015-09-02 03:11:15,0.01,0.34,0.00,23.46,28.14,30.78,14.68,50.02,1019.76,2035.10,3298.03,3158.90,3441.03,599.96,597.11,32.47,0000 0000 0000 0000 000000
2015-09-02 03:48:03,-3333.30,0.00,0.00,22.20,28.07,26.55,13.36,45.12,1019.58,1903.43,3230.43,3028.98,3317.26,555.84,555.24,0.01,0000 0000 0000 0000 000000
2015-09-02 03:53:04,0.00,0.00,0.00,22.08,27.86,27.55,14.56,49.31,1019.86,2037.02,3454.04,3240.21,3549.30,599.90,599.59,0.06,0000 0000 0000 0000 000000
2015-09-02 03:58:06,0.00,0.00,0.00,22.00,27.68,28.15,14.48,49.26,1020.01,2036.99,3453.12,3240.01,3549.00,599.61,599.72,0.11,0000 0000 0000 0000 000000
2015-09-02 04:03:07,0.00,0.00,0.00,21.93,27.53,28.93,14.60,49.20,1020.03,2037.26,3453.43,3240.65,3549.31,599.86,600.07,0.16,0000 0000 0000 0000 000000
2015-09-02 04:08:09,0.02,0.00,0.00,21.92,27.40,29.42,14.66,49.39,1020.05,2037.95,3453.94,3240.99,3549.96,599.96,600.21,0.21,0000 0000 0000 0000 000000
2015-09-02 04:13:11,-0.00,0.00,0.00,21.88,27.31,29.60,14.65,49.28,1020.07,2038.02,3453.99,3241.50,3550.05,600.22,600.57,0.26,0000 0000 0000 0000 000000
2015-09-02 04:18:13,0.03,0.00,0.00,21.88,27.24,29.67,14.60,49.12,1020.10,2038.48,3454.06,3241.97,3550.54,599.72,600.18,0.31,0000 0000 0000 0000 000000
2015-09-02 04:23:14,0.01,0.00,0.00,21.94,27.19,29.74,14.61,48.92,1020.18,2038.96,3454.78,3242.07,3550.97,599.88,600.15,0.36,0000 0000 0000 0000 000000
2015-09-02 04:28:16,-0.01,0.00,0.00,21.98,27.16,29.87,14.68,49.11,1020.24,2039.01,3454.99,3242.62,3551.13,599.98,600.22,0.41,0000 0000 0000 0000 000000
2015-09-02 04:33:18,-0.00,0.00,0.00,22.00,27.15,29.89,14.61,49.17,1020.34,2039.09,3454.99,3242.96,3551.47,599.61,600.00,0.46,0000 0000 0000 0000 000000
2015-09-02 04:38:20,0.06,0.00,0.00,22.19,27.15,29.76,14.67,48.88,1020.27,2039.74,3455.04,3242.90,3551.91,600.06,599.94,0.51,0000 0000 0000 0000 000000
2015-09-02 04:43:22,0.01,0.00,0.00,22.63,27.16,29.71,14.65,49.09,1020.34,2039.92,3455.26,3242.99,3551.94,600.27,599.25,0.56,0000 0000 0000 0000 000000
2015-09-02 04:48:24,0.01,0.01,0.00,22.86,27.20,29.74,14.65,48.90,1020.46,2039.93,3455.06,3242.99,3551.59,600.16,598.68,0.61,0000 0000 0000 0000 000000
2015-09-02 04:53:25,-0.00,0.01,0.00,23.03,27.24,29.83,14.56,48.77,1020.51,2039.87,3455.01,3242.99,3551.07,600.10,598.36,0.66,0000 0000 0000 0000 000000
2015-09-02 04:58:27,-0.01,0.00,0.00,23.16,27.28,29.90,14.57,48.75,1020.51,2039.64,3454.98,3242.72,3550.99,600.02,598.05,0.71,0000 0000 0000 0000 000000
2015-09-02 05:03:29,0.03,0.01,0.00,23.24,27.33,30.00,14.59,48.74,1020.52,2039.54,3454.48,3242.07,3550.68,600.12,597.96,0.76,0000 0000 0000 0000 000000
2015-09-02 05:08:31,-0.02,0.00,0.00,23.32,27.38,30.06,14.62,48.53,1020.51,2039.11,3454.02,3242.00,3550.04,600.34,598.14,0.81,0000 0000 0000 0000 000000
2015-09-02 05:13:32,0.00,0.00,0.00,23.37,27.43,30.12,14.51,48.50,1020.52,2039.03,3453.99,3241.94,3549.98,599.91,597.48,0.86,0000 0000 0000 0000 000000
2015-09-02 05:18:34,0.03,0.01,0.00,23.44,27.48,30.18,14.50,48.27,1020.51,2039.00,3453.75,3241.36,3549.39,599.88,597.29,0.91,0000 0000 0000 0000 000000
2015-09-02 05:23:36,0.01,0.01,0.00,23.47,27.53,30.25,14.59,48.48,1020.48,2038.99,3453.10,3241.02,3549.00,600.10,597.40,0.96,0000 0000 0000 0000 000000
2015-09-02 05:28:38,0.00,0.01,0.00,23.44,27.57,30.28,14.47,48.45,1020.48,2038.94,3453.00,3240.99,3548.75,599.70,597.19,1.01,0000 0000 0000 0000 000000
2015-09-02 05:33:40,-0.03,0.01,0.00,23.50,27.62,30.32,14.49,48.51,1020.49,2038.61,3452.91,3240.76,3548.14,599.82,597.19,1.06,0000 0000 0000 0000 000000
2015-09-02 05:38:42,-0.00,0.01,0.00,23.52,27.66,30.37,14.52,48.48,1020.50,2038.18,3452.34,3240.16,3548.00,599.89,596.97,1.11,0000 0000 0000 0000 000000
2015-09-02 05:43:43,-0.00,0.01,0.00,23.57,27.70,30.40,14.51,48.41,1020.51,2038.04,3452.01,3240.01,3547.92,599.87,597.08,1.16,0000 0000 0000 0000 000000
2015-09-02 05:48:45,0.01,0.01,0.00,23.60,27.74,30.43,14.54,48.31,1020.49,2038.00,3451.91,3239.91,3547.16,599.66,596.80,1.21,0000 0000 0000 0000 000000
2015-09-02 05:53:47,0.03,0.01,0.00,23.61,27.78,30.47,14.55,48.33,1020.50,2038.00,3451.33,3239.21,3546.99,600.07,597.04,1.27,0000 0000 0000 0000 000000
2015-09-02 05:58:48,0.01,0.01,0.00,23.60,27.81,30.51,14.46,48.30,1020.52,2037.98,3451.03,3239.01,3546.50,599.90,597.02,1.32,0000 0000 0000 0000 000000
2015-09-02 06:03:50,-0.01,0.01,0.00,23.66,27.84,30.53,14.42,48.28,1020.52,2037.90,3450.94,3238.97,3546.02,599.57,596.57,1.37,0000 0000 0000 0000 000000
2015-09-02 06:08:52,-0.01,0.01,0.00,23.68,27.87,30.56,14.46,48.22,1020.52,2037.58,3450.50,3238.64,3545.98,599.59,596.44,1.42,0000 0000 0000 0000 000000
2015-09-02 06:13:53,-0.01,0.01,0.00,23.70,27.90,30.58,14.53,48.36,1020.51,2037.22,3450.29,3238.39,3545.77,600.07,596.99,1.47,0000 0000 0000 0000 000000
2015-09-02 06:18:55,0.01,0.01,0.00,23.71,27.92,30.62,14.56,48.62,1020.52,2037.04,3450.03,3238.07,3545.21,600.13,597.02,1.52,0000 0000 0000 0000 000000
2015-09-02 06:23:56,0.00,0.01,0.00,23.72,27.95,30.62,14.52,48.46,1020.53,2037.01,3449.99,3238.00,3545.01,600.04,596.83,1.57,0000 0000 0000 0000 000000
2015-09-02 06:28:58,0.00,0.01,0.00,23.73,27.97,30.62,14.46,48.26,1020.54,2037.00,3449.93,3237.99,3544.99,599.80,596.67,1.62,0000 0000 0000 0000 000000
2015-09-02 06:33:59,0.01,0.01,0.00,23.74,27.99,30.65,14.48,48.33,1020.54,2037.00,3449.34,3237.85,3544.84,599.88,596.71,1.67,0000 0000 0000 0000 000000
2015-09-02 06:39:01,0.02,0.01,0.00,23.75,28.00,30.66,14.42,48.17,1020.52,2037.00,3449.03,3237.44,3544.34,599.71,596.57,1.72,0000 0000 0000 0000 000000
2015-09-02 06:44:02,0.00,0.01,0.00,23.75,28.02,30.68,14.54,48.22,1020.52,2036.96,3449.00,3237.06,3544.01,600.33,597.06,1.77,0000 0000 0000 0000 000000
2015-09-02 06:49:03,-0.00,0.01,0.00,23.67,28.03,30.69,14.52,48.38,1020.52,2036.93,3449.00,3237.00,3544.00,599.76,596.74,1.82,0000 0000 0000 0000 000000
2015-09-02 06:54:05,-0.04,0.01,0.00,23.70,28.05,30.69,14.54,48.24,1020.52,2036.60,3449.00,3237.00,3543.96,600.28,597.02,1.87,0000 0000 0000 0000 000000
2015-09-02 06:59:06,-0.02,0.01,0.00,23.70,28.06,30.73,14.57,48.49,1020.52,2036.29,3448.98,3237.00,3543.89,599.99,596.91,1.92,0000 0000 0000 0000 000000
2015-09-02 07:04:07,-0.01,0.01,0.00,23.75,28.07,30.73,14.55,48.29,1020.52,2036.10,3448.91,3236.99,3543.43,599.94,596.87,1.97,0000 0000 0000 0000 000000
2015-09-02 07:09:08,0.01,0.01,0.00,23.77,28.09,30.74,14.45,48.17,1020.54,2036.02,3448.36,3236.94,3543.08,600.08,596.87,2.02,0000 0000 0000 0000 000000
2015-09-02 07:14:10,0.00,0.01,0.00,23.75,28.10,30.75,14.61,48.47,1020.54,2036.01,3448.11,3236.89,3543.01,600.09,596.91,2.07,0000 0000 0000 0000 000000
2015-09-02 07:36:02,-3333.30,0.00,0.00,22.88,28.24,28.03,13.66,45.51,1020.50,1971.15,3353.45,3157.01,3442.71,566.61,565.30,0.01,0000 0000 0000 0000 000000
2015-09-02 07:41:03,0.00,0.00,0.00,22.79,28.12,29.20,14.58,48.63,1020.72,2036.35,3460.86,3260.43,3556.22,600.14,599.00,0.06,0000 0000 0000 0000 000000
2015-09-02 07:46:04,0.00,0.00,0.00,22.73,28.02,29.87,14.54,48.76,1021.00,2036.08,3459.96,3260.00,3555.19,599.97,599.16,0.11,0000 0000 0000 0000 000000
2015-09-02 07:51:05,0.00,0.00,0.00,22.65,27.93,30.14,14.60,48.88,1021.01,2036.52,3459.87,3260.00,3555.05,599.64,599.07,0.16,0000 0000 0000 0000 000000
2015-09-02 07:56:07,0.02,0.00,0.00,22.57,27.86,30.31,14.66,49.01,1021.01,2036.90,3459.87,3260.03,3555.04,600.17,599.65,0.21,0000 0000 0000 0000 000000
2015-09-02 08:01:09,0.01,0.00,0.00,22.52,27.81,30.41,14.72,49.06,1021.03,2036.97,3459.71,3260.13,3555.05,600.42,600.02,0.26,0000 0000 0000 0000 000000
2015-09-02 08:06:11,-0.01,0.00,0.00,22.54,27.77,30.44,14.64,48.88,1021.10,2036.99,3459.97,3260.74,3555.23,599.90,599.57,0.31,0000 0000 0000 0000 000000
2015-09-02 08:11:13,0.00,0.00,0.00,22.91,27.75,30.29,14.57,48.71,1021.41,2036.99,3459.99,3260.93,3555.19,599.87,598.88,0.36,0000 0000 0000 0000 000000
2015-09-02 08:16:14,0.00,0.00,0.00,23.14,27.75,30.35,14.55,48.50,1021.50,2036.99,3459.99,3260.96,3555.17,599.39,598.06,0.41,0000 0000 0000 0000 000000
2015-09-02 08:21:16,0.00,0.00,0.00,23.25,27.76,30.38,14.70,48.81,1021.50,2036.99,3459.96,3260.94,3555.08,600.37,598.75,0.46,0000 0000 0000 0000 000000
2015-09-02 08:26:18,0.00,0.00,0.00,23.35,27.77,30.41,14.65,48.77,1021.50,2036.99,3459.91,3260.92,3555.01,600.17,598.32,0.51,0000 0000 0000 0000 000000
2015-09-02 08:31:19,0.00,0.00,0.00,23.43,27.80,30.44,14.49,48.48,1021.50,2036.99,3459.57,3260.86,3555.00,599.66,597.68,0.56,0000 0000 0000 0000 000000
2015-09-02 08:36:21,0.02,0.00,0.00,23.49,27.82,30.47,14.49,48.37,1021.50,2036.99,3459.45,3260.65,3554.98,599.76,597.67,0.61,0000 0000 0000 0000 000000
2015-09-02 08:41:23,0.02,0.00,0.00,23.56,27.85,30.50,14.52,48.62,1021.50,2036.99,3459.01,3260.10,3554.52,599.98,597.78,0.66,0000 0000 0000 0000 000000
2015-09-02 08:46:24,0.01,0.00,0.00,23.61,27.88,30.54,14.49,48.57,1021.50,2036.98,3458.99,3260.02,3554.04,600.10,597.62,0.71,0000 0000 0000 0000 000000
2015-09-02 08:51:26,-0.00,0.00,0.00,23.61,27.91,30.59,14.60,48.63,1021.50,2036.98,3458.99,3260.00,3554.00,600.07,597.67,0.76,0000 0000 0000 0000 000000
2015-09-02 08:56:28,-0.00,0.00,0.00,23.64,27.93,30.60,14.56,48.38,1021.50,2036.91,3458.74,3259.98,3553.98,599.86,597.38,0.81,0000 0000 0000 0000 000000
2015-09-02 09:01:30,-0.01,0.00,0.00,23.67,27.96,30.65,14.59,48.41,1021.50,2036.66,3458.18,3259.89,3553.43,600.00,597.58,0.86,0000 0000 0000 0000 000000
2015-09-02 09:06:32,-0.01,0.00,0.00,23.67,27.98,30.67,14.54,48.45,1021.50,2036.21,3458.01,3259.29,3553.01,599.96,597.46,0.91,0000 0000 0000 0000 000000
2015-09-02 09:11:34,-0.00,0.00,0.00,23.69,28.01,30.70,14.53,48.49,1021.50,2036.10,3457.97,3259.03,3552.99,600.17,597.58,0.96,0000 0000 0000 0000 000000
2015-09-02 09:16:35,0.01,0.00,0.00,23.70,28.03,30.72,14.54,48.33,1021.50,2036.02,3457.50,3259.00,3552.85,599.98,597.50,1.01,0000 0000 0000 0000 000000
2015-09-02 09:21:37,0.01,0.00,0.00,23.70,28.05,30.75,14.50,48.46,1021.50,2036.01,3457.07,3258.99,3552.23,599.95,597.26,1.06,0000 0000 0000 0000 000000
2015-09-02 09:26:39,0.00,0.00,0.00,23.72,28.07,30.77,14.57,48.58,1021.50,2036.00,3457.00,3258.89,3552.01,600.03,597.42,1.11,0000 0000 0000 0000 000000
2015-09-02 09:31:40,0.02,0.00,0.00,23.74,28.10,30.76,14.51,48.44,1021.50,2036.00,3456.84,3258.29,3551.99,599.82,597.29,1.17,0000 0000 0000 0000 000000
2015-09-02 09:36:42,0.01,0.00,0.00,23.74,28.11,30.78,14.59,48.39,1021.50,2036.00,3456.30,3258.02,3551.89,600.15,597.51,1.22,0000 0000 0000 0000 000000
2015-09-02 09:41:43,0.00,0.01,0.00,23.73,28.12,30.81,14.56,48.42,1021.50,2035.99,3456.05,3258.00,3551.34,600.03,597.56,1.27,0000 0000 0000 0000 000000
2015-09-02 09:46:45,0.00,0.01,0.00,23.75,28.14,30.85,14.50,48.46,1021.50,2035.98,3456.00,3257.99,3551.02,599.94,597.35,1.32,0000 0000 0000 0000 000000
2015-09-02 09:51:46,-0.00,0.01,0.00,23.75,28.15,30.87,14.66,48.65,1021.50,2035.95,3456.00,3257.96,3550.99,600.48,597.71,1.37,0000 0000 0000 0000 000000
2015-09-02 09:56:48,0.02,0.01,0.00,23.75,28.17,30.88,14.56,48.45,1021.50,2035.92,3455.69,3257.65,3550.81,600.04,597.39,1.42,0000 0000 0000 0000 000000
2015-09-02 10:01:49,0.01,0.01,0.00,23.74,28.17,30.87,14.55,48.26,1021.50,2035.89,3455.23,3257.36,3550.46,599.63,596.91,1.47,0000 0000 0000 0000 000000
2015-09-02 10:06:51,-0.02,0.01,0.00,23.73,28.17,30.84,14.57,48.48,1021.50,2035.70,3455.08,3257.11,3550.12,599.81,597.20,1.52,0000 0000 0000 0000 000000
2015-09-02 10:11:53,0.00,0.01,0.00,23.74,28.18,30.88,14.52,48.35,1021.50,2035.47,3455.00,3257.02,3550.00,600.05,597.46,1.57,0000 0000 0000 0000 000000
2015-09-02 10:16:54,-0.02,0.00,0.00,23.76,28.20,30.87,14.51,48.33,1021.50,2035.17,3455.00,3257.00,3549.99,599.76,597.06,1.62,0000 0000 0000 0000 000000
2015-09-02 10:21:56,-0.01,0.00,0.00,23.76,28.20,30.89,14.63,48.46,1021.50,2035.11,3454.90,3257.00,3549.96,600.33,597.67,1.67,0000 0000 0000 0000 000000
2015-09-02 10:26:58,0.01,0.00,0.00,23.70,28.20,30.88,14.66,48.55,1021.50,2035.07,3454.53,3256.99,3549.88,600.17,597.64,1.72,0000 0000 0000 0000 000000
2015-09-02 10:31:59,0.00,0.01,0.00,23.69,28.20,30.85,14.56,48.42,1021.50,2035.08,3454.32,3256.98,3549.81,600.03,597.54,1.77,0000 0000 0000 0000 000000
2015-09-02 10:37:00,0.01,0.01,0.00,23.71,28.20,30.87,14.55,48.30,1021.50,2035.04,3454.06,3256.94,3549.21,599.96,597.45,1.82,0000 0000 0000 0000 000000
2015-09-02 10:42:02,0.00,0.01,0.00,23.72,28.20,30.86,14.54,48.51,1021.50,2035.02,3454.01,3256.86,3549.02,600.12,597.62,1.87,0000 0000 0000 0000 000000
2015-09-02 10:47:03,0.00,0.01,0.00,23.74,28.20,30.87,14.59,48.24,1021.52,2035.02,3453.98,3256.62,3549.00,599.95,597.37,1.92,0000 0000 0000 0000 000000
2015-09-02 10:52:04,0.01,0.01,0.00,23.74,28.21,30.87,14.59,48.32,1021.52,2035.07,3453.99,3256.76,3549.00,600.07,597.51,1.97,0000 0000 0000 0000 000000
2015-09-02 10:57:06,-0.00,0.01,0.00,23.75,28.20,30.88,14.56,48.42,1021.51,2035.07,3453.98,3256.58,3549.00,600.06,597.41,2.02,0000 0000 0000 0000 000000
2015-09-02 11:02:08,0.01,0.01,0.00,23.77,28.20,30.90,14.62,48.40,1021.51,2035.04,3453.78,3256.24,3548.99,600.16,597.55,2.07,0000 0000 0000 0000 000000
2015-09-02 11:07:09,0.00,0.01,0.00,23.77,28.20,30.89,14.53,48.38,1021.50,2035.03,3453.27,3256.06,3548.97,600.02,597.42,2.12,0000 0000 0000 0000 000000
2015-09-02 11:12:10,0.01,0.01,0.00,23.74,28.20,30.89,14.54,48.39,1021.50,2035.04,3453.13,3256.08,3548.97,600.20,597.50,2.17,0000 0000 0000 0000 000000
2015-09-02 11:17:11,0.00,0.01,0.00,23.76,28.20,30.86,14.52,48.46,1021.50,2035.04,3453.01,3256.04,3548.92,599.84,597.29,2.22,0000 0000 0000 0000 000000
2015-09-02 11:22:12,0.00,0.01,0.00,23.75,28.20,30.88,14.64,48.46,1021.50,2035.11,3453.02,3256.02,3548.92,600.38,597.66,2.27,0000 0000 0000 0000 000000
2015-09-02 11:27:14,0.01,0.01,0.00,23.72,28.20,30.85,14.56,48.24,1021.51,2035.07,3453.00,3256.00,3548.41,600.34,597.62,2.32,0000 0000 0000 0000 000000
2015-09-02 11:32:15,0.00,0.01,0.00,23.77,28.20,30.85,14.60,48.38,1021.51,2035.09,3453.00,3256.01,3548.20,600.06,597.43,2.37,0000 0000 0000 0000 000000
2015-09-02 11:37:16,0.00,0.01,0.00,23.74,28.20,30.85,14.56,48.28,1021.52,2035.06,3452.99,3256.00,3548.05,600.46,597.80,2.42,0000 0000 0000 0000 000000
2015-09-02 11:42:18,0.00,0.01,0.00,23.71,28.20,30.82,14.56,48.32,1021.52,2035.03,3452.97,3256.00,3548.02,600.14,597.57,2.47,0000 0000 0000 0000 000000
2015-09-02 11:47:19,0.00,0.01,0.00,23.68,28.20,30.84,14.51,48.30,1021.54,2035.04,3452.50,3256.00,3548.00,599.73,597.28,2.52,0000 0000 0000 0000 000000
2015-09-02 11:52:21,0.00,0.01,0.00,23.56,28.19,30.84,14.56,48.38,1021.56,2035.03,3452.05,3255.98,3548.00,599.87,597.71,2.57,0000 0000 0000 0000 000000
2015-09-02 11:57:22,-0.00,0.01,0.00,23.60,28.18,30.81,14.50,48.03,1021.53,2035.03,3452.00,3255.98,3547.99,599.86,597.51,2.62,0000 0000 0000 0000 000000
2015-09-02 12:02:23,0.00,0.01,0.00,23.62,28.18,30.87,14.56,48.29,1021.51,2035.08,3452.00,3255.97,3547.98,600.01,597.63,2.67,0000 0000 0000 0000 000000
2015-09-02 12:07:24,0.02,0.01,0.00,23.60,28.17,30.84,14.58,48.36,1021.53,2035.18,3451.99,3255.98,3547.98,600.00,597.75,2.72,0000 0000 0000 0000 000000
2015-09-02 12:12:25,0.00,0.01,0.00,23.61,28.17,30.84,14.55,48.42,1021.54,2035.32,3451.99,3255.94,3547.96,600.08,597.61,2.77,0000 0000 0000 0000 000000
2015-09-02 12:17:27,0.02,0.01,0.00,23.60,28.17,30.85,14.48,48.17,1021.54,2035.52,3451.90,3255.89,3547.93,599.62,597.37,2.82,0000 0000 0000 0000 000000
2015-09-02 12:22:28,0.01,0.01,0.00,23.62,28.17,30.85,14.53,48.09,1021.54,2035.51,3451.63,3255.74,3547.60,599.58,597.25,2.87,0000 0000 0000 0000 000000
2015-09-02 12:27:29,0.01,0.01,0.00,23.58,28.17,30.82,14.66,48.27,1021.53,2035.44,3451.29,3255.55,3547.26,600.07,597.82,2.92,0000 0000 0000 0000 000000
2015-09-02 12:32:31,-0.00,0.01,0.00,23.60,28.17,30.82,14.58,48.09,1021.52,2035.40,3451.18,3255.51,3547.17,599.89,597.55,2.97,0000 0000 0000 0000 000000
2015-09-02 12:37:32,-0.01,0.01,0.00,23.61,28.17,30.84,14.57,48.33,1021.52,2035.22,3451.04,3255.16,3547.02,600.05,597.87,3.02,0000 0000 0000 0000 000000
2015-09-02 12:42:33,0.02,0.01,0.00,23.65,28.17,30.83,14.67,48.31,1021.53,2035.39,3451.01,3255.21,3547.01,600.11,597.66,3.07,0000 0000 0000 0000 000000
2015-09-02 12:47:35,-0.01,0.01,0.00,23.68,28.17,30.81,14.54,48.33,1021.52,2035.29,3451.00,3255.08,3547.01,600.06,597.76,3.12,0000 0000 0000 0000 000000
2015-09-02 12:52:36,0.02,0.01,0.00,23.67,28.17,30.83,14.64,48.33,1021.56,2035.45,3450.99,3255.02,3547.00,600.30,597.82,3.17,0000 0000 0000 0000 000000
2015-09-02 12:57:38,-0.02,0.01,0.00,23.62,28.17,30.83,14.60,48.24,1021.53,2035.43,3450.99,3255.02,3547.00,600.04,597.70,3.22,0000 0000 0000 0000 000000
2015-09-02 13:02:39,0.01,0.01,0.00,23.63,28.17,30.82,14.67,48.27,1021.54,2035.47,3450.95,3255.01,3546.99,599.85,597.53,3.27,0000 0000 0000 0000 000000
2015-09-02 13:07:40,0.02,0.01,0.00,23.63,28.17,30.84,14.62,48.26,1021.58,2035.61,3450.94,3255.01,3546.99,600.32,598.02,3.33,0000 0000 0000 0000 000000
2015-09-02 13:12:42,-0.00,0.02,0.00,23.58,28.17,30.81,14.56,48.17,1021.56,2035.67,3450.90,3255.01,3546.98,600.00,597.74,3.37,0000 0000 0000 0000 000000
2015-09-02 13:17:43,0.02,0.02,0.00,23.62,28.17,30.82,14.57,48.13,1021.66,2035.83,3450.82,3255.01,3546.98,599.91,597.67,3.43,0000 0000 0000 0000 000000
2015-09-02 13:22:44,0.01,0.02,0.00,23.62,28.17,30.85,14.60,48.23,1021.62,2035.84,3450.41,3255.00,3546.92,600.34,597.96,3.48,0000 0000 0000 0000 000000
2015-09-02 13:27:46,0.00,0.02,0.00,23.62,28.16,30.81,14.54,48.17,1021.70,2035.84,3450.19,3255.00,3546.85,599.92,597.73,3.53,0000 0000 0000 0000 000000
2015-09-02 13:32:47,-0.01,0.02,0.00,23.61,28.15,30.84,14.59,48.22,1021.69,2035.78,3450.16,3255.00,3546.85,599.77,597.58,3.58,0000 0000 0000 0000 000000
2015-09-02 13:37:48,0.02,0.02,0.00,23.60,28.15,30.78,14.68,48.26,1021.73,2035.84,3450.08,3255.00,3546.68,599.93,597.65,3.63,0000 0000 0000 0000 000000
2015-09-02 13:42:50,0.00,0.02,0.00,23.63,28.15,30.79,14.54,48.23,1021.82,2035.84,3450.01,3255.00,3546.38,600.13,597.88,3.68,0000 0000 0000 0000 000000